Tracking 19717 objects as of 25-Jun-2019
HD Live streaming from Space Station
objects crossing your sky now

SL-8 DEB

Track SL-8 DEB now!
10-day predictions


NORAD ID: 21109
Int'l Code: 1991-009K
Perigee: 1,462.1 km
Apogee: 1,736.2 km
Inclination: 74.0 °
Period: 118.0 minutes
Semi major axis: 7970 km
RCS: 0.6993 m2 (medium)
Launch date: February 12, 1991
Source: Commonwealth of Independent States (former USSR) (CIS)
Launch site: PLESETSK MISSILE AND SPACE COMPLEX (PKMTR)

Note: This is SATELLITE DEBRIS
aabbcc
Your satellite tracking list
Your tracking list is empty




NASA's NSSDC Master Catalog

Two Line Element Set (TLE):
1 21109U 91009K   19175.72332184  .00000128  00000-0  13152-2 0  9990
2 21109  74.0270 162.9287 0171940 340.6693  69.6875 12.20114180262352
Source of the keplerian elements: AFSPC